GW2412 Weather Reports


Display with metric or nautical units.
time (UTC)temp
F
wind
direction
speed
MPH
gust
MPH
rain 1hr
in
rain 24hr
in
rain mn
in
humidity
%
barometer
mb
20260904054018 56 118 0.0 6.0 0.00 0.00 0.00 1 1010.8
20260904053518 55 110 2.0 6.0 0.00 0.00 0.00 1 1010.9
20260904053104 55 320 2.0 4.0 0.00 0.00 0.00 1 1011.1
20260904052521 56 320 0.0 2.0 0.00 0.00 0.00 1 1011.1
20260904052019 56 320 0.0 2.0 0.00 0.00 0.00 1 1011.2
20260904051601 56 320 0.0 2.0 0.00 0.00 0.00 1 1011.3
20260904051020 56 320 0.0 2.0 0.00 0.00 0.00 1 1011.2
20260904050519 56 320 0.0 4.0 0.00 0.00 0.00 1 1011.2
20260904045520 56 320 2.0 3.0 0.00 0.00 0.00 1 1011.1
20260904045021 56 320 2.0 4.0 0.00 0.00 0.00 1 1011.1
20260904044558 56 320 2.0 5.0 0.00 0.00 0.00 1 1011.0
20260904044022 57 320 3.0 6.0 0.00 0.00 0.00 1 1011.0
20260904043520 56 320 4.0 9.0 0.00 0.00 0.00 1 1010.9
20260904043112 56 323 5.0 9.0 0.00 0.00 0.00 1 1010.7
20260904042519 55 321 5.0 8.0 0.00 0.00 0.00 1 1010.6
20260904042018 54 315 4.0 8.0 0.00 0.00 0.00 1 1010.6
20260904041606 54 315 3.0 6.0 0.00 0.00 0.00 1 1010.7
20260904041022 54 315 3.0 8.0 0.00 0.00 0.00 1 1010.8
20260904040516 54 315 5.0 8.0 0.00 0.00 0.00 1 1010.8
20260904040035 53 313 6.0 9.0 0.00 0.00 0.00 1 1010.8
20260904035517 53 314 5.0 10.0 0.00 0.00 0.00 1 1010.8
20260904035017 53 311 6.0 9.0 0.00 0.00 0.00 1 1010.9
20260904034533 53 313 6.0 9.0 0.00 0.00 0.00 1 1010.9
20260904034017 52 326 5.0 8.0 0.00 0.00 0.00 1 1010.9
20260904033518 52 350 4.0 5.0 0.00 0.00 0.00 1 1011.1
20260904033038 53 350 4.0 6.0 0.00 0.00 0.00 1 1011.0
20260904032521 54 350 4.0 6.0 0.00 0.00 0.00 1 1010.9
20260904032018 54 325 4.0 9.0 0.00 0.00 0.00 1 1010.9
20260904031543 54 325 6.0 9.0 0.00 0.00 0.00 1 1010.8
20260904031017 54 340 5.0 9.0 0.00 0.00 0.00 1 1010.8
20260904030518 54 318 6.0 9.0 0.00 0.00 0.00 1 1010.9
20260904030038 54 313 7.0 10.0 0.00 0.00 0.00 1 1011.0
20260904025516 53 319 7.0 10.0 0.00 0.00 0.00 1 1010.8
20260904025016 53 323 7.0 9.0 0.00 0.00 0.00 1 1010.6
20260904024539 53 319 7.0 9.0 0.00 0.00 0.00 1 1010.6
20260904024016 53 327 6.0 9.0 0.00 0.00 0.00 1 1010.7
20260904023517 53 351 6.0 9.0 0.00 0.00 0.00 1 1010.7
20260904023035 54 323 4.0 8.0 0.00 0.00 0.00 1 1010.8
20260904022517 54 329 6.0 8.0 0.00 0.00 0.00 1 1010.7
20260904022020 55 317 4.0 6.0 0.00 0.00 0.00 1 1010.5
20260904021542 56 317 3.0 5.0 0.00 0.00 0.00 1 1010.5
20260904021017 57 317 3.0 5.0 0.00 0.00 0.00 1 1010.4
20260904020518 58 317 3.0 9.0 0.00 0.00 0.00 1 1010.7
20260904020033 58 317 5.0 11.0 0.00 0.00 0.00 1 1010.4
20260904015518 58 327 7.0 9.0 0.00 0.00 0.00 1 1010.6
20260904015019 59 309 4.0 6.0 0.00 0.00 0.00 1 1010.4
20260904014604 60 309 3.0 7.0 0.00 0.00 0.00 1 1010.4
20260904014015 61 309 4.0 8.0 0.00 0.00 0.00 1 1010.4
20260904013517 62 303 3.0 10.0 0.00 0.00 0.00 1 1010.3
20260904013034 63 259 5.0 11.0 0.00 0.00 0.00 1 1010.6
20260904012516 64 300 8.0 15.0 0.00 0.00 0.00 1 1010.4
20260904012016 64 285 9.0 15.0 0.00 0.00 0.00 1 1010.3
20260904011539 65 295 9.0 17.0 0.00 0.00 0.00 1 1010.4
20260904011020 65 265 9.0 17.0 0.00 0.00 0.00 1 1010.5
20260904010517 66 285 13.0 17.0 0.00 0.00 0.00 1 1010.6
20260904010041 66 289 12.0 19.0 0.00 0.00 0.00 1 1010.6
20260904005518 65 265 13.0 19.0 0.00 0.01 0.00 1 1010.4
20260904005018 66 263 13.0 18.0 0.00 0.01 0.00 1 1010.4
20260904004540 66 268 13.0 18.0 0.00 0.01 0.00 1 1010.5
20260904004020 67 265 13.0 18.0 0.00 0.01 0.00 1 1010.4
20260904003518 66 265 12.0 18.0 0.00 0.01 0.00 1 1010.5
20260904003034 67 281 11.0 19.0 0.00 0.01 0.00 1 1010.6
20260904002516 67 277 14.0 20.0 0.00 0.01 0.00 1 1010.3
20260904002028 67 265 13.0 21.0 0.00 0.01 0.00 1 1010.2
20260904001538 67 254 16.0 23.0 0.00 0.01 0.00 1 1010.2
20260904001019 67 299 15.0 23.0 0.00 0.01 0.00 1 1010.1
20260904000520 68 276 15.0 19.0 0.00 0.01 0.00 1 1010.2
20260904000110 68 276 12.0 26.0 0.00 0.01 0.00 1 1010.1
20260903235520 68 259 15.0 26.0 0.00 0.02 0.00 1 1010.1
20260903235019 68 264 14.0 23.0 0.00 0.02 0.00 1 1010.1
20260903234537 68 269 14.0 25.0 0.00 0.02 0.00 1 1010.0
20260903234018 68 251 18.0 25.0 0.00 0.02 0.00 1 1010.1
20260903233518 68 263 17.0 25.0 0.00 0.02 0.00 1 1010.1
20260903233037 69 277 17.0 25.0 0.00 0.02 0.00 1 1010.1
20260903232521 69 252 18.0 25.0 0.00 0.02 0.00 1 1010.2
20260903232017 69 280 19.0 25.0 0.00 0.02 0.00 1 1010.2
20260903231542 69 259 18.0 26.0 0.00 0.02 0.00 1 1010.2
20260903231018 69 246 20.0 27.0 0.00 0.02 0.00 1 1010.2
20260903230522 69 234 20.0 28.0 0.00 0.02 0.00 1 1010.1
20260903230037 69 232 20.0 28.0 0.00 0.02 0.00 1 1010.1
20260903225518 70 240 16.0 24.0 0.00 0.02 0.00 1 1009.8
20260903225015 70 249 18.0 25.0 0.00 0.02 0.00 1 1009.9
20260903224545 70 228 19.0 26.0 0.00 0.02 0.00 1 1009.9
20260903224015 70 254 19.0 26.0 0.00 0.02 0.00 1 1009.9
20260903223519 70 245 17.0 24.0 0.00 0.02 0.00 1 1009.8
20260903223039 70 286 16.0 22.0 0.00 0.02 0.00 1 1009.6
20260903222519 70 234 17.0 26.0 0.00 0.02 0.00 1 1009.8
20260903222019 70 254 19.0 26.0 0.00 0.02 0.00 1 1009.6
20260903221535 70 263 18.0 26.0 0.00 0.02 0.00 1 1009.2
20260903221015 70 277 17.0 24.0 0.00 0.02 0.00 1 1009.5
20260903220518 70 271 15.0 23.0 0.00 0.02 0.00 1 1009.4
20260903220040 70 250 15.0 23.0 0.00 0.02 0.00 1 1009.3
20260903215516 71 263 14.0 25.0 0.00 0.02 0.00 1 1009.3
20260903215018 70 223 16.0 25.0 0.00 0.02 0.00 1 1009.3
20260903214548 70 256 12.0 22.0 0.00 0.02 0.00 1 1009.3
20260903214019 70 248 13.0 25.0 0.00 0.02 0.00 1 1009.4
20260903213520 71 235 17.0 25.0 0.00 0.02 0.00 1 1009.4
20260903213039 71 229 16.0 26.0 0.00 0.02 0.00 1 1009.3
20260903212519 71 244 18.0 26.0 0.00 0.02 0.00 1 1009.3
20260903212019 71 240 19.0 25.0 0.00 0.02 0.00 1 1009.0
20260903211543 71 260 17.0 23.0 0.00 0.02 0.00 1 1009.0
20260903211017 68 215 5.0 17.0 0.00 0.02 0.00 1 1009.0
20260903210519 68 229 8.0 20.0 0.00 0.02 0.00 1 1009.2
20260903210044 69 245 13.0 21.0 0.00 0.02 0.00 1 1009.2
20260903205519 70 236 14.0 22.0 0.00 0.02 0.00 1 1009.2
20260903205015 70 254 16.0 22.0 0.00 0.02 0.00 1 1009.1
20260903204540 70 263 9.0 19.0 0.00 0.02 0.00 1 1009.2
20260903204020 69 239 10.0 19.0 0.00 0.02 0.00 1 1009.2
20260903203523 69 240 14.0 22.0 0.00 0.02 0.00 1 1009.2
20260903203043 70 257 6.0 18.0 0.00 0.02 0.00 1 1009.2
20260903202518 70 249 13.0 17.0 0.00 0.02 0.00 1 1009.1
20260903202018 68 197 9.0 19.0 0.00 0.02 0.00 1 1009.1
20260903201546 68 216 12.0 20.0 0.00 0.02 0.00 1 1009.1
20260903201017 68 222 13.0 20.0 0.00 0.02 0.00 1 1009.1
20260903200520 68 212 11.0 21.0 0.00 0.02 0.00 1 1009.2
20260903200041 69 206 8.0 20.0 0.00 0.02 0.00 1 1009.2
20260903195520 69 237 15.0 20.0 0.00 0.02 0.00 1 1009.2
20260903195021 68 264 11.0 23.0 0.00 0.02 0.00 1 1009.1
20260903194547 69 245 18.0 23.0 0.00 0.02 0.00 1 1009.1
20260903194017 70 268 17.0 22.0 0.00 0.02 0.00 1 1009.0
20260903193521 69 286 15.0 21.0 0.00 0.02 0.00 1 1009.0
20260903193051 70 256 14.0 25.0 0.00 0.02 0.00 1 1009.3
20260903192517 69 259 13.0 25.0 0.00 0.02 0.00 1 1009.0
20260903192016 68 216 13.0 22.0 0.00 0.02 0.00 1 1009.0
20260903191545 67 257 14.0 23.0 0.00 0.02 0.00 1 1009.0
20260903191022 67 228 16.0 23.0 0.00 0.02 0.00 1 1009.0
20260903190518 67 242 12.0 23.0 0.00 0.02 0.00 1 1009.1
20260903190054 68 227 16.0 23.0 0.00 0.02 0.00 1 1009.1
20260903185519 68 246 15.0 23.0 0.00 0.02 0.00 1 1008.8
20260903185017 67 218 11.0 16.0 0.00 0.02 0.00 1 1008.8
20260903184549 67 248 9.0 15.0 0.00 0.02 0.00 1 1008.8
20260903184019 67 225 10.0 15.0 0.00 0.02 0.00 1 1009.0
20260903183522 66 234 9.0 18.0 0.00 0.02 0.00 1 1008.9
20260903183043 67 236 14.0 19.0 0.00 0.02 0.00 1 1009.0
20260903182517 68 225 13.0 21.0 0.00 0.02 0.00 1 1008.9
20260903182017 67 217 13.0 21.0 0.00 0.02 0.00 1 1008.9
20260903181548 66 234 11.0 18.0 0.00 0.02 0.00 1 1008.9
20260903181019 66 223 14.0 19.0 0.00 0.02 0.00 1 1008.8
20260903180517 66 221 11.0 20.0 0.00 0.02 0.00 1 1008.9
20260903180051 67 222 11.0 18.0 0.00 0.02 0.00 1 1008.7
20260903175517 66 234 11.0 19.0 0.00 0.02 0.00 1 1009.1
20260903175016 65 234 14.0 19.0 0.00 0.02 0.00 1 1009.2
20260903174543 65 227 11.0 18.0 0.00 0.02 0.00 1 1009.2
20260903174018 65 229 8.0 18.0 0.00 0.02 0.00 1 1009.1
20260903173515 64 209 11.0 18.0 0.00 0.02 0.00 1 1009.0
20260903173048 65 221 11.0 16.0 0.00 0.02 0.00 1 1009.0
20260903172517 64 233 11.0 16.0 0.00 0.02 0.00 1 1009.0
20260903172017 64 203 10.0 16.0 0.00 0.02 0.00 1 1009.0
20260903171547 64 227 11.0 16.0 0.00 0.02 0.00 1 1009.0
20260903171016 63 216 10.0 16.0 0.00 0.02 0.00 1 1009.1
20260903170518 62 218 9.0 14.0 0.00 0.02 0.00 1 1009.0
20260903170054 63 234 8.0 12.0 0.00 0.02 0.00 1 1009.0
20260903165517 62 242 8.0 11.0 0.00 0.02 0.00 1 1009.2
20260903165016 62 244 6.0 12.0 0.00 0.02 0.00 1 1008.9
20260903164540 61 271 4.0 12.0 0.00 0.02 0.00 1 1009.0
20260903164016 61 272 8.0 11.0 0.00 0.02 0.00 1 1008.9
20260903163522 60 229 5.0 8.0 0.00 0.02 0.00 1 1008.9
20260903163102 59 213 5.0 8.0 0.00 0.02 0.00 1 1009.0
20260903162519 58 217 3.0 10.0 0.00 0.02 0.00 1 1009.1
20260903162020 58 231 5.0 10.0 0.00 0.02 0.00 1 1009.1
20260903161548 58 220 7.0 12.0 0.00 0.02 0.00 1 1009.0
20260903161018 58 233 9.0 12.0 0.00 0.02 0.00 1 1008.9
20260903160516 57 250 8.0 12.0 0.00 0.02 0.00 1 1008.8
20260903160044 57 220 5.0 11.0 0.00 0.02 0.00 1 1008.8
20260903155518 57 232 6.0 9.0 0.00 0.02 0.00 1 1008.8
20260903155020 57 223 7.0 9.0 0.00 0.02 0.00 1 1008.6
20260903154547 56 242 7.0 10.0 0.00 0.02 0.00 1 1008.6
20260903154022 56 240 6.0 9.0 0.00 0.02 0.00 1 1008.7
20260903153518 56 234 6.0 9.0 0.00 0.02 0.00 1 1008.8
20260903153043 55 232 5.0 9.0 0.00 0.02 0.00 1 1008.9
20260903152519 55 250 5.0 8.0 0.00 0.02 0.00 1 1008.9
20260903152015 54 273 5.0 8.0 0.00 0.02 0.00 1 1008.8
20260903151549 54 263 4.0 7.0 0.00 0.02 0.00 1 1008.8
20260903151019 54 271 2.0 6.0 0.00 0.02 0.00 1 1008.8
20260903150517 53 271 3.0 6.0 0.00 0.02 0.00 1 1009.0
20260903145518 53 241 2.0 4.0 0.00 0.02 0.00 1 1008.9
20260903145021 52 241 2.0 3.0 0.00 0.02 0.00 1 1008.7
20260903144545 52 241 0.0 4.0 0.00 0.02 0.00 1 1008.6
20260903144017 52 241 2.0 5.0 0.00 0.02 0.00 1 1008.6
20260903143515 52 241 3.0 7.0 0.00 0.02 0.00 1 1008.6
20260903143045 51 241 4.0 7.0 0.00 0.02 0.00 1 1008.5
20260903142521 51 277 3.0 5.0 0.00 0.02 0.00 1 1008.5
20260903142020 50 277 4.0 5.0 0.00 0.02 0.00 1 1008.4
20260903141545 50 277 3.0 8.0 0.00 0.02 0.00 1 1008.4
20260903141023 50 277 5.0 9.0 0.00 0.02 0.00 1 1008.3
20260903140520 50 271 6.0 8.0 0.00 0.02 0.00 1 1008.1
20260903140046 49 256 6.0 8.0 0.00 0.02 0.00 1 1008.1
20260903135520 49 259 6.0 8.0 0.00 0.02 0.00 1 1008.1
20260903135019 48 270 5.0 7.0 0.00 0.02 0.00 1 1008.1
20260903134548 48 274 5.0 7.0 0.00 0.02 0.00 1 1008.2
20260903134019 47 274 5.0 7.0 0.00 0.02 0.00 1 1008.2
20260903133519 47 273 3.0 5.0 0.00 0.02 0.00 1 1008.1
20260903133046 46 259 3.0 5.0 0.00 0.02 0.00 1 1008.1
20260903132518 45 311 3.0 5.0 0.00 0.02 0.00 1 1007.9
20260903132019 45 311 3.0 5.0 0.00 0.02 0.00 1 1007.9
20260903131544 45 311 4.0 6.0 0.00 0.02 0.00 1 1008.0
20260903131018 44 311 4.0 6.0 0.00 0.02 0.00 1 1008.0
20260903130515 43 311 5.0 6.0 0.00 0.02 0.00 1 1007.8
20260903130051 43 311 4.0 5.0 0.00 0.02 0.00 1 1007.6
20260903125516 42 311 4.0 6.0 0.00 0.02 0.00 1 1007.5
20260903125026 42 311 4.0 6.0 0.00 0.02 0.00 1 1007.5
20260903124558 42 311 4.0 6.0 0.00 0.02 0.00 1 1007.4
20260903124020 42 311 4.0 6.0 0.00 0.02 0.00 1 1007.4
20260903123518 42 311 4.0 6.0 0.00 0.02 0.00 1 1007.4
20260903123041 42 311 4.0 6.0 0.00 0.02 0.00 1 1007.4
20260903122516 42 311 3.0 6.0 0.00 0.02 0.00 1 1007.6
20260903122016 41 311 4.0 6.0 0.00 0.02 0.00 1 1007.6
20260903121544 40 311 5.0 6.0 0.00 0.02 0.00 1 1007.6
20260903121021 40 311 4.0 6.0 0.00 0.02 0.00 1 1007.6
20260903120519 40 311 5.0 6.0 0.00 0.02 0.00 1 1007.6
20260903120052 41 295 4.0 7.0 0.00 0.02 0.00 1 1007.7
20260903115521 41 295 4.0 7.0 0.00 0.02 0.00 1 1007.6
20260903115019 43 291 4.0 7.0 0.00 0.02 0.00 1 1007.5
20260903114610 44 291 5.0 7.0 0.00 0.02 0.00 1 1007.6
20260903114017 44 298 4.0 7.0 0.00 0.02 0.00 1 1007.6
20260903113526 43 298 3.0 5.0 0.00 0.02 0.00 1 1007.7
20260903113044 45 251 0.0 4.0 0.00 0.02 0.00 1 1007.9
20260903112519 45 251 2.0 4.0 0.00 0.02 0.00 1 1007.8
20260903112022 47 251 0.0 4.0 0.00 0.02 0.00 1 1007.8
20260903111548 47 251 2.0 4.0 0.00 0.02 0.00 1 1007.8
20260903111025 47 251 2.0 4.0 0.00 0.02 0.00 1 1008.0
20260903110520 47 269 1.0 5.0 0.00 0.02 0.00 1 1007.9
20260903110046 47 303 3.0 5.0 0.00 0.02 0.00 1 1007.9
20260903105524 47 303 2.0 4.0 0.00 0.02 0.00 1 1007.8
20260903105019 44 303 0.0 4.0 0.00 0.02 0.00 1 1007.9
20260903104543 43 303 0.0 3.0 0.00 0.02 0.00 1 1007.8
20260903104017 44 303 0.0 3.0 0.00 0.02 0.00 1 1007.8
20260903103520 42 304 1.0 3.0 0.00 0.02 0.00 1 1007.9
20260903103101 42 304 0.0 2.0 0.00 0.02 0.00 1 1007.9
20260903102522 42 303 0.0 4.0 0.00 0.02 0.00 1 1007.8
20260903102021 43 304 1.0 5.0 0.00 0.02 0.00 1 1007.5
20260903101545 42 304 3.0 5.0 0.00 0.02 0.00 1 1007.5
20260903101020 42 304 1.0 3.0 0.00 0.02 0.00 1 1007.6
20260903100525 43 303 0.0 4.0 0.00 0.02 0.00 1 1007.7
20260903100048 44 303 2.0 4.0 0.00 0.02 0.00 1 1007.7
20260903095519 46 303 2.0 4.0 0.00 0.02 0.00 1 1007.6
20260903095018 45 303 2.0 4.0 0.00 0.02 0.00 1 1007.5
20260903094558 43 304 1.0 4.0 0.00 0.02 0.00 1 1007.7
20260903094021 43 304 1.0 4.0 0.00 0.02 0.00 1 1007.7
20260903093520 43 304 2.0 4.0 0.00 0.02 0.00 1 1007.7
20260903093122 44 304 2.0 3.0 0.00 0.02 0.00 1 1007.6
20260903092522 45 304 0.0 3.0 0.00 0.02 0.00 1 1007.6
20260903092021 46 303 0.0 3.0 0.00 0.02 0.00 1 1007.5
20260903091553 47 303 0.0 0.0 0.00 0.02 0.00 1 1007.6
20260903091024 48 303 0.0 0.0 0.00 0.02 0.00 1 1007.6
20260903090519 48 303 0.0 0.0 0.00 0.02 0.00 1 1007.5
20260903090046 49 303 0.0 0.0 0.00 0.02 0.00 1 1007.4
20260903085517 49 303 0.0 0.0 0.00 0.02 0.00 1 1007.4
20260903085018 49 303 0.0 2.0 0.00 0.02 0.00 1 1007.4
20260903084542 49 303 0.0 5.0 0.00 0.02 0.00 1 1007.4
20260903084019 48 303 3.0 5.0 0.00 0.02 0.00 1 1007.3
20260903083518 48 303 1.0 5.0 0.00 0.02 0.00 1 1007.3
20260903083057 47 303 3.0 6.0 0.00 0.02 0.00 1 1007.3
20260903082527 47 303 4.0 6.0 0.00 0.02 0.00 1 1007.1
20260903082025 47 272 5.0 6.0 0.00 0.02 0.00 1 1007.0
20260903081547 47 272 3.0 6.0 0.00 0.02 0.00 1 1007.1
20260903081023 47 272 3.0 4.0 0.00 0.02 0.00 1 1007.1
20260903080529 48 272 3.0 6.0 0.00 0.02 0.00 1 1007.1
20260903080045 48 272 4.0 6.0 0.00 0.02 0.00 1 1007.2
20260903075519 48 272 4.0 6.0 0.00 0.02 0.00 1 1007.1
20260903075021 48 272 4.0 6.0 0.00 0.02 0.00 1 1007.1
20260903074552 48 272 4.0 6.0 0.00 0.02 0.00 1 1006.9
20260903074020 48 272 3.0 6.0 0.00 0.02 0.00 1 1006.9
20260903073520 48 272 3.0 7.0 0.00 0.02 0.00 1 1006.9
20260903073052 49 272 4.0 8.0 0.00 0.02 0.00 1 1006.8
20260903072526 49 272 5.0 8.0 0.00 0.02 0.00 1 1006.7
20260903072019 49 275 6.0 8.0 0.00 0.02 0.00 1 1006.7
20260903071616 49 275 4.0 7.0 0.00 0.02 0.00 1 1006.5
20260903071020 50 275 3.0 8.0 0.00 0.02 0.00 1 1006.6
20260903070530 50 275 4.0 9.0 0.00 0.02 0.00 1 1006.8
20260903070104 49 299 6.0 9.0 0.00 0.02 0.00 1 1007.0
20260903065525 49 297 4.0 7.0 0.00 0.02 0.00 1 1007.0
20260903065022 49 260 2.0 6.0 0.00 0.02 0.00 1 1007.0
20260903064541 50 260 3.0 7.0 0.00 0.02 0.00 1 1007.0
20260903064019 50 260 3.0 7.0 0.00 0.02 0.00 1 1006.8
20260903063525 50 279 4.0 8.0 0.00 0.02 0.00 1 1006.8
20260903063055 51 263 3.0 11.0 0.00 0.02 0.00 1 1006.8
20260903062522 51 281 5.0 13.0 0.00 0.02 0.00 1 1006.7
20260903062020 51 272 8.0 16.0 0.00 0.02 0.00 1 1006.7
20260903061550 51 266 11.0 17.0 0.00 0.02 0.00 1 1006.7
20260903061026 51 271 13.0 21.0 0.00 0.02 0.00 1 1006.8
20260903060518 52 260 15.0 23.0 0.00 0.02 0.00 1 1006.8
20260903060042 52 258 17.0 23.0 0.00 0.02 0.00 1 1006.8
20260903055521 52 246 16.0 24.0 0.00 0.02 0.02 1 1006.9
20260903055023 52 240 16.0 23.0 0.00 0.02 0.02 1 1007.0